Weather in Shelek

Kazakhstan     43°35′51″N   78°15′02″E
temp.,
°C
wind,
m/s
gust,
m/s
humid.,
%
clouds,
%
prec.,
mm/h
press.,
hPa
HPBL,
m
23 october, sat
sat2300:00+2sw2476100 0.6 1038292
03:00+2sw117566 0.1 103829
06:000s22736 0.1 103913
09:00+3ene346929 0.0 1039336
12:00+7ne54515 0.0 1036897
15:00+8ne55421 0.0 1033858
18:00+6e35520 0.0 103495
21:00+5ese35580 0.0 1035102
24 october, sun
sun2400:00+4ese35575 0.0 1034106
03:00+3e35570 0.0 103396
06:00+3e35532 0.0 1032105
09:00+5ene46461 0.0 1030239
12:00+11ene66325 0.0 1026685
15:00+12ene66270 0.0 1023705
18:00+9e46390 0.0 1024113
21:00+7se34440 0.0 102373
25 october, mon
mon2500:00+7se33380 0.0 102138
03:00+7se33300 0.0 101930
06:00+6se22290 0.0 101817
09:00+9ene23280 0.0 1018109
12:00+14ne43220 0.0 1016534
15:00+14nne32210 0.0 1015557
18:00+10sw11290 0.0 101610
21:00+9ssw11320 0.0 101711
26 october, tue
tue2600:00+9sse11330 0.0 101710
03:00+9se22330 0.0 101710
06:00+8sse11330 0.0 101811
09:00+11sse01300 0.0 101941
12:00+15nne21220 0.0 1019444
15:00+16nnw22190 0.0 1018641
18:00+12sw33272 0.0 102021
21:00+11ssw33264 0.0 102221
27 october, wed
wed2700:00+10ssw322514 0.0 102313
03:00+10s222676 0.0 102411
06:00+9s222868 0.0 102411
09:00+11e112553 0.0 102559
12:00+12n3226100 0.0 1024585
15:00+13n1126100 0.0 1023490
18:00+11w3333100 0.0 102453
21:00+10wsw3334100 0.0 102565